Location: Burgberg
(50.1428°N, 11.0671°E)
Time: 19:23:57
(UTC+00:00)

Cosmos 1844 Rocket - Pass Details

Date: 26 January 2020
Orbit: 824 x 845 km, 71.0° (Epoch: 21 February)

Event Time Altitude Azimuth Distance (km) Brightness Sun altitude
Exits shadow 06:02:18 - 324° (NW) 2,910 5.0 -9.1°
Reaches altitude 10° 06:03:31 10° 321° (NW) 2,459 4.6 -8.9°
Maximum altitude 06:08:52 46° 250° (WSW) 1,120 3.1 -8.1°
Drops below altitude 10° 06:14:13 10° 179° (S) 2,456 5.4 -7.3°
Sets 06:16:44 0° 173° (S) 3,388 6.3 -6.9°
